Miscellaneous Local Product
Issued by NWS Hastings, NE

Home | Current Version | Previous Version | Graphics & Text | Print | Product List | Glossary On
Versions: 1 2 3 4 5 6 7 8 9 10 11 12 13 14 15 16 17 18 19 20 21 22 23 24 25 26 27 28 29 30 31 32 33 34 35 36 37 38 39 40 41 42 43 44 45 46 47 48 49 50
000
AXUS43 KGID 211402
MISGRI

GID CWA HOURLY WEATHER ROUNDUP
NATIONAL WEATHER SERVICE HASTINGS NE
900 AM CDT TUE OCT 21 2014

NOTE: "FAIR" INDICATES FEW OR NO CLOUDS BELOW 12,000 FEET WITH NO
SIGNIFICANT WEATHER AND/OR OBSTRUCTIONS TO VISIBILITY.

...SOUTH CENTRAL NEBRASKA...

CITY           SKY/WX    TMP DP  RH WIND       PRES   REMARKS
GRAND ISLAND   SUNNY     50  43  77 S5        30.09R
HASTINGS       SUNNY     49  41  74 S3        30.09R
KEARNEY        SUNNY     45  41  87 S5        30.09R
ORD            SUNNY     42  39  89 CALM      30.06R
YORK           SUNNY     46  39  76 S6        30.10S
AURORA         SUNNY     45  40  82 SE3       30.10R HAZE
LEXINGTON      SUNNY     45  42  91 SE5       30.07S
HOLDREGE       SUNNY     48  41  78 CALM      30.09R
HEBRON         SUNNY     41  37  86 CALM      30.11R

...NEBRASKA PANHANDLE...

CITY           SKY/WX    TMP DP  RH WIND       PRES   REMARKS
CHADRON        CLEAR     46  41  82 W5        29.90S
ALLIANCE       CLEAR     46  43  89 S7        29.96S
SCOTTSBLUFF    CLEAR     44  41  89 E6        29.97R
SIDNEY         CLEAR     47  45  93 S7        30.00R

...WESTERN AND NORTH CENTRAL NEBRASKA...

CITY           SKY/WX    TMP DP  RH WIND       PRES   REMARKS
VALENTINE      CLEAR     52  40  63 S14       29.96S
AINSWORTH      CLEAR     51  40  67 S10       29.99S
ONEILL         SUNNY     48  43  82 SE7       30.04R
BROKEN BOW     SUNNY     45  41  86 CALM      30.06R
IMPERIAL       CLEAR     53  50  89 SE10      30.03S
NORTH PLATTE   CLEAR     52  44  74 S6        30.05R
MCCOOK         SUNNY     46  40  79 CALM      30.07R

...EASTERN NEBRASKA...

CITY           SKY/WX    TMP DP  RH WIND       PRES   REMARKS
NORFOLK        SUNNY     47  39  74 E3        30.07S
SO SIOUX CITY  SUNNY     43  39  86 SE3       30.11S
TEKAMAH        SUNNY     43  40  89 CALM      30.12R
COLUMBUS       SUNNY     45  37  76 CALM      30.11R
ALBION         SUNNY     44  38  81 SE3       30.08S
OMAHA EPPLEY   SUNNY     45  39  79 CALM      30.14R
OFFUTT AFB     SUNNY     43  43 100 CALM      30.13R
MILLARD        SUNNY     44  43  94 CALM      30.13R
LINCOLN        SUNNY     43  38  82 CALM      30.13R
NEBRASKA CITY  SUNNY     49  40  73 CALM      30.13R
BEATRICE       SUNNY     44  38  80 CALM      30.11S HAZE
FALLS CITY     SUNNY     43  40  89 CALM      30.13R

...NORTHERN KANSAS...

CITY           SKY/WX    TMP DP  RH WIND       PRES   REMARKS
GOODLAND       FOG       54  54 100 S16       30.07S VSB 1/4
HILL CITY      SUNNY     44  40  85 CALM      30.09R
NORTON         SUNNY     48  41  76 CALM      30.07R
PHILLIPSBURG   SUNNY     43  43 100 CALM      30.09R
BELOIT         SUNNY     45  45 100 CALM      30.10R
HAYS           MOSUNNY   46  41  81 CALM      30.09R
RUSSELL        MOSUNNY   52  47  83 SE5       30.08R
CONCORDIA      SUNNY     46  43  89 CALM      30.11R
SALINA         SUNNY     51  45  79 CALM      30.11R
TOPEKA         SUNNY     44  44 100 CALM      30.13S



USA.gov is the U.S. government's official web portal to all federal, state and local government web resources and services.